Location: Napier
(39.4830°S, 176.9170°E)
Time: 02:22:25
(UTC+13:00)

Cosmos 1340 Rocket - Pass Details

Date: 24 January 2019
Orbit: 528 x 560 km, 81.2° (Epoch: 22 February)

Event Time Altitude Azimuth Distance (km) Brightness Sun altitude
Exits shadow 23:51:26 42° 194° (SSW) 788 4.0 -27.4°
Drops below altitude 10° 23:54:14 10° 177° (S) 1,825 6.2 -27.6°
Sets 23:56:27 0° 173° (S) 2,731 7.3 -27.8°
